Powrót do katalogu

TORO-3

AktywnyNaukaSSO
NORAD 68481·PAYLOAD·🇹🇼 Taiwan

Wystrzelony Mar 30, 2026 z Vandenberg Space Force Base

Loading…

Następne Przeloty (najbliższe 24 godziny)

TLE

ŚwieżeSource: Space-Track

Epoka: Sep 14, 2026, 14:53 UTC

1 68481U 26067BT  26257.62068204  .00001382  00000-0  14101-3 0  9992
2 68481  97.7773 214.7751 0003737  42.5281 317.6227 14.92247819 25066

Śledź TORO-3 w czasie rzeczywistym z AllMySat

Download on the App Store